Saint Petersburg, FL

8:59 AM EST on January 16, 2017 (GMT -0500)
Whitted

Weather History for KSPG - May, 2014

Change the Weather History Date:

Thursday, May 15, 2014

  Actual Average Record
Temperature  
Mean Temperature 78 °F -  
Max Temperature 82 °F 86 °F 93 °F (1985)
Min Temperature 73 °F 70 °F 60 °F (1960)
Cooling Degree Days 12    
Growing Degree Days 28 (Base 50)    
Moisture  
Dew Point 73 °F    
Average Humidity 84    
Maximum Humidity 96    
Minimum Humidity 71    
Precipitation  
Precipitation 0.01 in - - ()
Sea Level Pressure  
Sea Level Pressure 29.93 in    
Wind  
Wind Speed 13 mph (SW)    
Max Wind Speed 18 mph    
Max Gust Speed 22 mph    
Visibility 10 miles    
Events Rain    
Averages and records for this station are not official NWS values.
T = Trace of Precipitation, MM = Missing Value Source: NWS Daily Summary

Daily Weather History Graph

Daily Weather History Graph

Search for Another Location

Airport or City:

Trip Planner

Search our weather history database for the weather conditions in past years. The results will help you decide how hot, cold, wet, or windy it might be!

Date:

Astronomy

May. 15, 2014 Rise Set
Actual Time 6:41 AM EDT 8:12 PM EDT
Civil Twilight 6:15 AM EDT 8:38 PM EDT
Nautical Twilight 5:45 AM EDT 9:08 PM EDT
Astronomical Twilight 5:13 AM EDT 9:40 PM EDT
Moon 9:19 PM EDT (5/15) 7:25 AM EDT (5/15)
Length of Visible Light 14h 22m
Length of Day
13h 31m
Full, 99% of the Moon is Illuminated
May 15
Full
May 21
Last Quarter
May 28
New
Jun 5
First Quarter
Jun 13
Full

Hourly Weather History & Observations

Time (EDT) Temp. Heat Index Dew Point Humidity Pressure Visibility Wind Dir Wind Speed Gust Speed Precip Events Conditions
12:53 AM 77.0 °F - 73.0 °F 88% 29.98 in 10.0 mi South 11.5 mph - N/A   Scattered Clouds
1:53 AM 77.0 °F - 73.0 °F 88% 29.96 in 10.0 mi SSE 12.7 mph - N/A   Mostly Cloudy
2:53 AM 77.0 °F - 72.0 °F 84% 29.94 in 10.0 mi South 18.4 mph - 0.00 in Rain Light Rain
3:53 AM 75.9 °F - 73.0 °F 91% 29.91 in 10.0 mi South 15.0 mph - 0.00 in Rain Light Rain
4:53 AM 75.9 °F - 73.0 °F 91% 29.92 in 10.0 mi South 15.0 mph - 0.00 in   Mostly Cloudy
5:41 AM 75.9 °F - 73.0 °F 91% 29.92 in 10.0 mi South 13.8 mph - 0.00 in   Mostly Cloudy
5:53 AM 75.0 °F - 73.0 °F 94% 29.93 in 10.0 mi South 13.8 mph - 0.00 in   Mostly Cloudy
6:06 AM 75.9 °F - 73.0 °F 91% 29.93 in 10.0 mi South 12.7 mph - N/A   Mostly Cloudy
6:43 AM 75.0 °F - 73.0 °F 94% 29.93 in 10.0 mi South 13.8 mph - 0.00 in Rain Light Rain
6:53 AM 75.0 °F - 73.0 °F 94% 29.93 in 4.0 mi South 12.7 mph - 0.01 in Rain Light Rain
7:05 AM 75.0 °F - 73.0 °F 94% 29.92 in 10.0 mi South 15.0 mph - 0.00 in   Mostly Cloudy
7:31 AM 75.0 °F - 73.9 °F 96% 29.93 in 10.0 mi South 15.0 mph - 0.00 in   Scattered Clouds
7:53 AM 75.9 °F - 73.9 °F 94% 29.94 in 10.0 mi South 13.8 mph - 0.00 in   Partly Cloudy
8:53 AM 78.1 °F - 75.0 °F 90% 29.94 in 10.0 mi South 13.8 mph - N/A   Unknown
9:09 AM 79.0 °F - 75.9 °F 90% 29.93 in 10.0 mi SSW 10.4 mph - N/A   Mostly Cloudy
9:17 AM 79.0 °F - 75.9 °F 90% 29.93 in 10.0 mi South 13.8 mph - N/A   Overcast
9:53 AM 79.0 °F - 75.9 °F 90% 29.94 in 10.0 mi SSW 10.4 mph - N/A   Overcast
10:10 AM 80.1 °F 85.1 °F 75.0 °F 85% 29.94 in 10.0 mi SSW 12.7 mph 20.7 mph N/A   Overcast
10:23 AM 80.1 °F 85.1 °F 75.0 °F 85% 29.94 in 10.0 mi SW 12.7 mph - N/A   Mostly Cloudy
10:53 AM 81.0 °F 86.2 °F 73.9 °F 79% 29.95 in 10.0 mi SW 11.5 mph - N/A   Mostly Cloudy
11:53 AM 82.0 °F 87.9 °F 73.9 °F 76% 29.94 in 10.0 mi WSW 16.1 mph - N/A   Clear
12:45 PM 82.0 °F 87.9 °F 73.9 °F 76% 29.93 in 10.0 mi WSW 16.1 mph 20.7 mph N/A   Mostly Cloudy
12:53 PM 82.9 °F 90.2 °F 75.0 °F 77% 29.93 in 10.0 mi WSW 13.8 mph 21.9 mph N/A   Mostly Cloudy
1:08 PM 82.9 °F 89.4 °F 73.9 °F 74% 29.92 in 10.0 mi WSW 15.0 mph - N/A   Mostly Cloudy
1:40 PM 78.1 °F - 73.9 °F 87% 29.93 in 10.0 mi West 10.4 mph - 0.00 in Rain Light Rain
1:53 PM 79.0 °F - 75.0 °F 88% 29.93 in 9.0 mi West 8.1 mph - 0.00 in Rain Light Rain
3:53 PM 82.0 °F 86.7 °F 72.0 °F 71% 29.91 in 10.0 mi WNW 10.4 mph 19.6 mph N/A   Scattered Clouds
4:25 PM 82.0 °F 86.7 °F 72.0 °F 71% 29.90 in 10.0 mi North 11.5 mph - N/A   Mostly Cloudy
4:50 PM 80.6 °F 84.6 °F 71.6 °F 74% 29.89 in 10.0 mi NNW 12.7 mph 18.4 mph N/A   Overcast
4:53 PM 81.0 °F 84.9 °F 71.1 °F 72% 29.89 in 10.0 mi NNW 13.8 mph 18.4 mph N/A   Overcast
5:02 PM 80.1 °F 83.6 °F 71.1 °F 74% 29.90 in 10.0 mi NW 16.1 mph - N/A   Overcast
5:53 PM 80.1 °F 83.6 °F 71.1 °F 74% 29.90 in 10.0 mi NNW 9.2 mph 20.7 mph 0.00 in   Overcast
6:53 PM 79.0 °F - 70.0 °F 74% 29.92 in 10.0 mi NNW 9.2 mph - N/A   Overcast
7:34 PM 77.0 °F - 71.1 °F 82% 29.94 in 10.0 mi NW 6.9 mph - N/A   Overcast
7:53 PM 77.0 °F - 70.0 °F 79% 29.94 in 10.0 mi NNW 12.7 mph - N/A   Overcast
8:53 PM 75.9 °F - 69.1 °F 79% 29.97 in 10.0 mi NNW 11.5 mph 18.4 mph N/A   Overcast
9:53 PM 75.0 °F - 68.0 °F 79% 29.99 in 10.0 mi NNW 10.4 mph - N/A   Overcast
10:53 PM 73.9 °F - 66.0 °F 76% 30.00 in 10.0 mi NW 11.5 mph - N/A   Overcast
11:53 PM 73.9 °F - 66.9 °F 79% 30.01 in 10.0 mi NW 8.1 mph 17.3 mph N/A   Overcast